Regional Weather Roundup
Issued by NWS Sterling, VA

Home | Current Version | Previous Version | Graphics & Text | Print | Product List | Glossary On
Versions: 1 2 3 4 5 6 7 8 9 10 11 12 13 14 15 16 17 18 19 20 21 22 23 24 25 26 27 28 29 30 31 32 33 34 35 36 37 38 39 40 41 42 43 44 45 46 47 48 49 50
566
ASUS41 KLWX 200711
RWRLWX

REGIONAL WEATHER ROUNDUP
NATIONAL WEATHER SERVICE BALTIMORE MD/WASHINGTON DC
300 AM EDT THU JUL 20 2017

Note: "FAIR" indicates few or no clouds below 12,000 feet
with no significant weather and/or obstructions to visibility.
 TC=TEMPERATURE CELSIUS

 * =Non NWS site. Station does not report precipitation (e.g. rain,
    snow, etc.), thunder, or fog.

DCZ001-MDZ009-015-VAZ040>042-051-053>054-200800-
WASHINGTON METRO

CITY           SKY/WX    TMP DP  RH WIND       PRES   REMARKS
WASHINGTON NAT MOCLDY    81  76  84 S5        30.02F
DULLES         PTCLDY    76  72  87 NW3       30.02F
ANDREWS AFB    CLEAR     78  71  81 SW8       30.01F
FT BELVOIR     CLEAR     74  73  95 CALM      30.01F
QUANTICO       CLEAR     79  76  90 CALM      30.02F
COLLEGE PARK*  CLEAR     76  73  90 CALM      30.02R
LEESBURG*      CLEAR     77  73  88 CALM      30.04S
MANASSAS*      CLEAR     74  72  93 CALM      30.02F
GAITHERSBURG*  CLEAR     74  72  93 CALM      30.04F

$$

MDZ006>007-011-014-200800-
BALTIMORE METRO

CITY           SKY/WX    TMP DP  RH WIND       PRES   REMARKS
BWI AIRPORT    PTCLDY    78  74  87 W3        30.01S
MD SCIENCE CTR   N/A     84  74  71 MISG      30.01S HX  91
MARTIN STATE   RAIN      81  77  89 W6        30.02S
ANNAPOLIS      CLEAR     78  77  96 W5        30.00F
FORT MEADE*    CLEAR     72  70  94 CALM      30.04S

$$

MDZ012-015-019>023-200800-
MARYLAND EASTERN SHORE

CITY           SKY/WX    TMP DP  RH WIND       PRES   REMARKS
OCEAN CITY     CLEAR     76  73  91 W8        30.02F
SALISBURY      NOT AVBL
BAY BRIDGE AP* CLEAR     81  73  78 SW7       30.00F
CAMBRIDGE*     CLEAR     77  75  94 CALM      30.01F
EASTON*        CLEAR     81  74  81 SW3       30.05S

$$

MDZ017>025-200800-
SOUTHERN MARYLAND

CITY           SKY/WX    TMP DP  RH WIND       PRES   REMARKS
PATUXENT RIVER CLEAR     78  74  87 SW6       30.01F
ST INIGOES     CLEAR     80  73  79 SW6       30.01F
LEONARDTOWN*   CLEAR    N/A N/A N/A SW3       30.04F

$$

MDZ003>005-200800-
NORTH CENTRAL MARYLAND

CITY           SKY/WX    TMP DP  RH WIND       PRES   REMARKS
FREDERICK*     CLEAR     75  73  94 S3        30.05S
HAGERSTOWN APT CLEAR     78  71  79 CALM      30.04F
WESTMINSTER*   CLEAR     79  70  73 CALM      30.04F

$$

MDZ501>502-200800-
WESTERN MARYLAND

CITY           SKY/WX    TMP DP  RH WIND       PRES   REMARKS
OAKLAND*       CLEAR     68  64  88 CALM      30.16F
CUMBERLAND*    CLEAR     72  72 100 CALM      30.10F

$$

VAZ025>031-200800-
SHENANDOAH VALLEY

CITY           SKY/WX    TMP DP  RH WIND       PRES   REMARKS
WINCHESTER*    CLEAR     68  68 100 CALM      30.05F
FRONT ROYAL*   CLEAR     72  70  94 S3        30.05F
LURAY*         PTCLDY    72  70  94 CALM      30.08S
NEW MARKET*    CLEAR     68  65  93 CALM      30.08S
STAUNTON*      CLEAR     66  65  95 CALM      30.12S FOG
WAYNESBORO*    CLEAR     71  68  92 CALM      30.11S

$$

WVZ021-048>050-054>055-200800-
EASTERN WEST VIRGINIA PANHANDLE

CITY           SKY/WX    TMP DP  RH WIND       PRES   REMARKS
MARTINSBURG    CLEAR     73  68  84 CALM      30.03F
PETERSBURG*    CLEAR     68  67  96 CALM      30.10F FOG

$$

VAZ036>039-050-200800-
CENTRAL FOOTHILLS

CITY           SKY/WX    TMP DP  RH WIND       PRES   REMARKS
CHARLOTTESVILL PTCLDY    73  71  93 CALM      30.05F
CULPEPER*      CLEAR     72  72  99 CALM      30.04F FOG
ORANGE*        PTCLDY    70  68  94 CALM      30.04F
GORDONSVILLE*  PTCLDY    71  70  97 CALM      30.04S
WARRENTON*     PTCLDY    73  69  89 CALM      30.03F FOG

$$

VAZ055>057-200800-
NORTH AND CENTRAL PIEDMONT

CITY           SKY/WX    TMP DP  RH WIND       PRES   REMARKS
FREDERICKSBRG* CLEAR     75  73  91 CALM      30.01F
STAFFORD*      CLEAR     71  71 100 CALM      30.06F

$$

NCZ024-NYZ072-PAZ021-071-VAZ022-071-200800-
OTHER REGIONAL OBSERVATIONS

CITY           SKY/WX    TMP DP  RH WIND       PRES   REMARKS
NEW YORK CITY  MOCLDY    82  70  66 CALM      30.00F
PHILADELPHIA   PTCLDY    81  74  79 SW7       30.00S
PITTSBURGH     PTCLDY    74  69  85 CALM      30.07F
ROANOKE        PTCLDY    72  65  78 N3        30.11S
RICHMOND       CLEAR     75  70  84 S5        30.03F
RALEIGH        CLEAR     74  70  87 CALM      30.06F

$$

ANZ530>537-200800-
MARINE OBSERVATIONS

STATION/POSITION TIME  TEMP    WIND        PRES
                       AIR SEA DIR/SP/G
                 (UTC) (F)     (DEG/KT/KT) (MB)
THOMAS PT LIGHT  0700   82 82  240/  8/  9   N/A
BALT KEY BRIDGE  0648   81     290/  6/  8 1016.1S
COVE POINT       0648   81     250/ 11/ 14 1016.8F
LEWISETTA        0648   79 86  240/  8/ 10 1016.4F
SOLOMONS ISLAND  0648   80 84  240/  3/  5   N/A
PINEY POINT      0648          280/  6/  7   N/A

$$





USA.gov is the U.S. government's official web portal to all federal, state and local government web resources and services.